Location: Marsån
(66.4167°N, 22.2833°E)
Time: 11:59:03
(UTC+00:00)

Cosmos 2151 - Pass Details

Date: 24 February 2024
Orbit: 572 x 589 km, 82.5° (Epoch: 15 April)

Event Time Altitude Azimuth Distance (km) Brightness Sun altitude
Rises 18:27:17 0° 194° (SSW) 2,780 6.4 -18.8°
Reaches altitude 10° 18:29:27 10° 194° (SSW) 1,886 5.5 -19.0°
Maximum altitude 18:33:37 85° 106° (ESE) 587 2.8 -19.4°
Drops below altitude 10° 18:37:49 10° 19° (NNE) 1,903 5.6 -19.8°
Sets 18:40:01 0° 19° (NNE) 2,808 6.5 -20.0°
